TimeCDT,TemperatureF,Dew PointF,Humidity,Sea Level PressureIn,VisibilityMPH,Wind Direction,Wind SpeedMPH,Gust SpeedMPH,PrecipitationIn,Events,Conditions,WindDirDegrees,DateUTC
12:15 AM,72.5,71.6,97,30.03,10.0,Calm,Calm,-,N/A,,Clear,0,2013-06-20 05:15:00
12:35 AM,72.9,71.8,96,30.03,10.0,Calm,Calm,-,N/A,,Clear,0,2013-06-20 05:35:00
12:55 AM,72.3,71.8,98,30.03,7.0,Calm,Calm,-,N/A,,Clear,0,2013-06-20 05:55:00
1:15 AM,72.0,71.8,99,30.03,7.0,Calm,Calm,-,N/A,,Clear,0,2013-06-20 06:15:00
1:35 AM,71.8,71.6,99,30.03,7.0,Calm,Calm,-,N/A,,Clear,0,2013-06-20 06:35:00
1:55 AM,71.6,71.2,99,30.02,5.0,Calm,Calm,-,N/A,,Clear,0,2013-06-20 06:55:00
2:15 AM,71.2,71.1,99,30.01,5.0,Calm,Calm,-,N/A,,Clear,0,2013-06-20 07:15:00
2:35 AM,71.4,71.2,99,30.01,7.0,Calm,Calm,-,N/A,,Clear,0,2013-06-20 07:35:00
2:55 AM,71.2,71.1,99,30.01,5.0,Calm,Calm,-,N/A,,Scattered Clouds,0,2013-06-20 07:55:00
3:15 AM,71.1,70.9,99,30.01,1.0,Calm,Calm,-,N/A,,Overcast,0,2013-06-20 08:15:00
3:35 AM,71.1,71.1,100,30.01,0.8,Calm,Calm,-,N/A,,Overcast,0,2013-06-20 08:35:00
3:55 AM,71.1,71.1,100,30.01,0.5,Calm,Calm,-,N/A,Fog,Fog,0,2013-06-20 08:55:00
4:15 AM,71.1,71.1,100,30.01,0.5,Calm,Calm,-,N/A,Fog,Fog,0,2013-06-20 09:15:00
4:35 AM,71.4,71.4,100,30.02,0.5,Calm,Calm,-,N/A,Fog,Fog,0,2013-06-20 09:35:00
4:55 AM,71.6,71.6,100,30.02,0.5,Calm,Calm,-,N/A,Fog,Fog,0,2013-06-20 09:55:00
5:15 AM,71.6,71.6,100,30.03,0.5,Calm,Calm,-,N/A,Fog,Fog,0,2013-06-20 10:15:00
5:35 AM,71.6,71.6,100,30.03,1.0,Calm,Calm,-,N/A,,Overcast,0,2013-06-20 10:35:00
5:55 AM,71.2,71.2,100,30.04,3.0,Calm,Calm,-,N/A,,Overcast,0,2013-06-20 10:55:00
6:15 AM,71.6,71.6,100,30.05,4.0,Calm,Calm,-,N/A,,Overcast,0,2013-06-20 11:15:00
6:35 AM,71.6,71.6,100,30.05,5.0,Calm,Calm,-,N/A,,Overcast,0,2013-06-20 11:35:00
6:55 AM,71.8,71.6,99,30.06,5.0,Calm,Calm,-,N/A,,Mostly Cloudy,0,2013-06-20 11:55:00
7:15 AM,72.5,72.1,99,30.07,5.0,Calm,Calm,-,N/A,,Mostly Cloudy,0,2013-06-20 12:15:00
7:35 AM,73.4,72.5,97,30.08,7.0,Calm,Calm,-,N/A,,Mostly Cloudy,0,2013-06-20 12:35:00
7:55 AM,75.2,73.2,94,30.08,7.0,Calm,Calm,-,N/A,,Mostly Cloudy,0,2013-06-20 12:55:00
8:15 AM,76.6,73.4,90,30.09,10.0,Calm,Calm,-,N/A,,Clear,0,2013-06-20 13:15:00
8:35 AM,78.3,74.3,88,30.09,10.0,Calm,Calm,-,N/A,,Clear,0,2013-06-20 13:35:00
8:55 AM,79.2,74.8,87,30.10,10.0,Calm,Calm,-,N/A,,Clear,0,2013-06-20 13:55:00
9:15 AM,80.8,75.7,85,30.10,10.0,Calm,Calm,-,N/A,,Clear,0,2013-06-20 14:15:00
9:35 AM,82.2,76.3,82,30.11,10.0,Calm,Calm,-,N/A,,Scattered Clouds,0,2013-06-20 14:35:00
9:55 AM,83.8,76.8,79,30.11,10.0,West,3.5,-,N/A,,Mostly Cloudy,280,2013-06-20 14:55:00
10:15 AM,84.4,76.1,76,30.11,10.0,Calm,Calm,-,N/A,,Scattered Clouds,0,2013-06-20 15:15:00
10:35 AM,85.3,76.5,75,30.11,10.0,South,5.8,-,N/A,,Mostly Cloudy,190,2013-06-20 15:35:00
10:55 AM,84.9,74.7,71,30.11,10.0,West,5.8,-,N/A,,Mostly Cloudy,270,2013-06-20 15:55:00
11:15 AM,86.2,75.9,71,30.10,10.0,WSW,4.6,-,N/A,,Scattered Clouds,250,2013-06-20 16:15:00
11:35 AM,86.9,73.9,65,30.11,10.0,Calm,Calm,-,N/A,,Scattered Clouds,0,2013-06-20 16:35:00
11:55 AM,86.9,73.8,65,30.10,10.0,WNW,4.6,-,N/A,,Scattered Clouds,300,2013-06-20 16:55:00
12:15 PM,87.3,74.7,66,30.10,10.0,SW,4.6,-,N/A,,Scattered Clouds,230,2013-06-20 17:15:00
12:35 PM,88.5,72.3,59,30.10,10.0,SSW,3.5,-,N/A,,Clear,200,2013-06-20 17:35:00
12:55 PM,86.2,74.5,68,30.09,10.0,West,4.6,-,N/A,,Mostly Cloudy,270,2013-06-20 17:55:00
1:15 PM,87.6,73.6,63,30.09,10.0,Calm,Calm,-,N/A,,Mostly Cloudy,0,2013-06-20 18:15:00
1:35 PM,89.4,73.8,60,30.08,10.0,West,5.8,-,N/A,,Scattered Clouds,280,2013-06-20 18:35:00
1:55 PM,89.1,71.6,56,30.08,10.0,Calm,Calm,-,N/A,,Scattered Clouds,0,2013-06-20 18:55:00
2:15 PM,90.1,73.9,59,30.07,10.0,Calm,Calm,-,N/A,,Scattered Clouds,0,2013-06-20 19:15:00
2:35 PM,90.9,74.1,58,30.06,10.0,Calm,Calm,-,N/A,,Clear,0,2013-06-20 19:35:00
2:55 PM,90.3,73.9,58,30.06,10.0,West,5.8,-,N/A,,Scattered Clouds,270,2013-06-20 19:55:00
3:15 PM,89.2,72.5,58,30.05,10.0,Calm,Calm,-,N/A,,Scattered Clouds,0,2013-06-20 20:15:00
3:35 PM,91.6,71.4,52,30.05,10.0,West,5.8,-,N/A,,Scattered Clouds,280,2013-06-20 20:35:00
3:55 PM,90.0,71.8,55,30.05,10.0,Calm,Calm,-,N/A,,Scattered Clouds,0,2013-06-20 20:55:00
4:15 PM,91.0,71.6,53,30.04,10.0,Calm,Calm,-,N/A,,Scattered Clouds,0,2013-06-20 21:15:00
4:35 PM,92.5,72.0,51,30.04,10.0,WSW,4.6,-,N/A,,Clear,250,2013-06-20 21:35:00
4:55 PM,91.2,71.1,51,30.03,10.0,Calm,Calm,-,N/A,,Clear,0,2013-06-20 21:55:00
5:15 PM,91.9,70.2,49,30.03,10.0,Calm,Calm,-,N/A,,Clear,0,2013-06-20 22:15:00
5:35 PM,91.8,71.2,51,30.03,10.0,Calm,Calm,-,N/A,,Clear,0,2013-06-20 22:35:00
5:55 PM,91.8,71.4,51,30.03,10.0,Calm,Calm,-,N/A,,Clear,0,2013-06-20 22:55:00
6:15 PM,91.4,71.8,52,30.02,10.0,WSW,3.5,-,N/A,,Clear,250,2013-06-20 23:15:00
6:35 PM,91.4,72.1,53,30.02,10.0,Calm,Calm,-,N/A,,Clear,0,2013-06-20 23:35:00
6:55 PM,90.5,72.1,55,30.02,10.0,Calm,Calm,-,N/A,,Clear,0,2013-06-20 23:55:00
7:15 PM,89.6,73.6,59,30.02,10.0,Calm,Calm,-,N/A,,Clear,0,2013-06-21 00:15:00
7:35 PM,88.0,76.3,68,30.03,10.0,Calm,Calm,-,N/A,,Clear,0,2013-06-21 00:35:00
7:55 PM,86.0,77.0,74,30.02,10.0,Calm,Calm,-,N/A,,Clear,0,2013-06-21 00:55:00
8:15 PM,83.3,75.7,78,30.03,10.0,Calm,Calm,-,N/A,,Clear,0,2013-06-21 01:15:00
8:35 PM,83.3,76.8,81,30.03,10.0,Calm,Calm,-,N/A,,Clear,0,2013-06-21 01:35:00
8:55 PM,81.9,77.4,86,30.04,10.0,SSE,4.6,-,N/A,,Scattered Clouds,160,2013-06-21 01:55:00
9:15 PM,80.8,76.5,87,30.04,10.0,South,4.6,-,N/A,,Clear,180,2013-06-21 02:15:00
9:35 PM,80.8,74.3,81,30.05,10.0,SE,4.6,-,N/A,,Clear,140,2013-06-21 02:35:00
9:55 PM,79.5,73.8,82,30.05,10.0,SSE,5.8,-,N/A,,Clear,150,2013-06-21 02:55:00
10:15 PM,78.4,73.4,84,30.06,10.0,SSE,4.6,-,N/A,,Clear,160,2013-06-21 03:15:00
10:35 PM,77.5,73.6,88,30.06,10.0,South,4.6,-,N/A,,Clear,170,2013-06-21 03:35:00
10:55 PM,77.2,73.8,89,30.07,10.0,South,3.5,-,N/A,,Clear,170,2013-06-21 03:55:00
11:15 PM,76.6,73.4,90,30.07,10.0,South,3.5,-,N/A,,Clear,180,2013-06-21 04:15:00
11:35 PM,76.5,73.4,90,30.07,10.0,Calm,Calm,-,N/A,,Clear,0,2013-06-21 04:35:00
11:55 PM,75.9,73.0,91,30.08,10.0,Calm,Calm,-,N/A,,Clear,0,2013-06-21 04:55:00